Tracking 31027 objects as of 19-Jul-2025
HD Live streaming from Space Station
objects crossing your sky now

FENGYUN 1C DEB

Track FENGYUN 1C DEB now!
10-day predictions


NORAD ID: 33674
Int'l Code: 1999-025DFK
Perigee: 831.3 km
Apogee: 1,137.5 km
Inclination: 98.6 °
Period: 104.6 minutes
Semi major axis: 7355 km
RCS: 0.0036 m2 (small)
Launch date: May 10, 1999
Source: People's Republic of China (PRC)
Launch site: Taiyaun Space Center, China (TSC)

Note: This is SATELLITE DEBRIS
Your satellite tracking list
EUTE 33A (EB 3)
Track 1 satellite(s)




NASA's NSSDC Master Catalog

Two Line Element Set (TLE):
1 33674U 99025DFK 25199.13694320  .00001610  00000-0  14442-2 0  9997
2 33674  98.6134 262.9841 0208138 277.4104  80.3442 13.76241350863342
Source of the keplerian elements: AFSPC